Content
SEND FEEDBACK

Daily
Averages
Monthly
Summary
Canada

HAMILTON, ONTARIO


Home > North America > Canada > Ontario
Elevation: 776 feet     Latitude: 43 10N     Longitude: 079 55W

WEATHER
 
SELECT A DAY
Number of Records: 168,093;   Date Range: 1/1/95 - 9/19/14
 
SHARE

PRINT THIS DATA

[ ← Previous Day ]
WEATHER ALMANAC - JANUARY 10, 2013
[ Next Day → ]
[ °C ]   °F
Weather ElementAverageHighLow
Temperature32.8 °F39.2 °F (2:00 pm)26.6 °F (8:00 am)
Dewpoint26.4 °F28.4 °F (11:00 am)24.8 °F (3:00 am)
Humidity76.2 %93 % (8:00 am)56 % (1:00 pm)
Barometer30.52 in30.61 in (9:00 am)30.40 in (11:00 pm)
Wind Speed5.8 mph10.4 mph (10:00 pm)
Weather ElementAverage
Visibility15 mi
Wind DirectionSSW (201.2 °)

Weather ElementTotal
Precipitation---
Heating Degree Days32.1 (Base 65)
Averaged from 25 records on January 10, 2013
WEATHER CONDITIONS BREAKOUT
WIND DIRECTION BREAKOUT
WEATHER BY HOUR - JANUARY 10, 2013
[ °C ]   °F
Local TimeTemperatureDewpointHumidityBarometerVisibilityWind DirectionWind SpeedGust SpeedPrecipitationEventsConditions
1:00 AM36.0 °F27.0 °F59 %30.41 in15.0 miNW (310°)9.2 mphScattered Clouds
2:00 AM35.6 °F26.6 °F70 %30.44 in15.0 miWNW (300°)5.8 mphClear
3:00 AM30.2 °F24.8 °F80 %30.48 in15.0 miSW (230°)6.9 mphPartly Cloudy
4:00 AM30.2 °F24.8 °F80 %30.50 in15.0 miWSW (240°)8.1 mphMostly Cloudy
6:00 AM28.4 °F24.8 °F86 %30.52 in15.0 miWest (270°)5.8 mphMostly Cloudy
7:00 AM28.4 °F24.8 °F86 %30.55 in15.0 miWest (280°)4.6 mphScattered Clouds
7:00 AM29.0 °F26.0 °F81 %30.55 in15.0 miWest (280°)4.6 mphScattered Clouds
8:00 AM26.6 °F24.8 °F93 %30.60 in15.0 miWSW (240°)4.6 mphScattered Clouds
9:00 AM26.6 °F24.8 °F93 %30.61 in15.0 miSW (230°)5.8 mphScattered Clouds
10:00 AM32.0 °F26.6 °F80 %30.61 in15.0 miWSW (250°)3.5 mphScattered Clouds
11:00 AM35.6 °F28.4 °F75 %30.61 in15.0 miSW (230°)4.6 mphScattered Clouds
12:00 PM37.4 °F28.4 °F70 %30.58 in15.0 miWSW (240°)5.8 mphScattered Clouds
1:00 PM37.4 °F26.6 °F65 %30.56 in15.0 miWSW (240°)5.8 mphMostly Cloudy
1:00 PM37.0 °F27.0 °F56 %30.56 in15.0 miSW (230°)4.6 mphScattered Clouds
2:00 PM39.2 °F26.6 °F61 %30.54 in15.0 miWSW (240°)4.6 mphMostly Cloudy
3:00 PM39.2 °F28.4 °F65 %30.54 in15.0 miSSW (200°)4.6 mphMostly Cloudy
4:00 PM35.6 °F26.6 °F70 %30.54 in15.0 miSouth (180°)5.8 mphMostly Cloudy
5:00 PM33.8 °F26.6 °F75 %30.53 in15.0 miSouth (170°)4.6 mphMostly Cloudy
6:00 PM33.8 °F26.6 °F75 %30.52 in15.0 miESE (110°)3.5 mphMostly Cloudy
7:00 PM32.0 °F26.6 °F80 %30.52 in15.0 miSE (140°)5.8 mphMostly Cloudy
7:00 PM32.0 °F27.0 °F74 %30.52 in15.0 miSE (130°)4.6 mphClear
8:00 PM30.2 °F26.6 °F86 %30.50 in15.0 miEast (80°)5.8 mphMostly Cloudy
9:00 PM30.2 °F26.6 °F86 %30.49 in15.0 miENE (70°)5.8 mphMostly Cloudy
10:00 PM32.0 °F26.6 °F80 %30.44 in15.0 miEast (80°)10.4 mphMostly Cloudy
11:00 PM32.0 °F26.6 °F80 %30.40 in15.0 miENE (60°)10.4 mphMostly Cloudy
Hourly data recorded from CYHM, located miles away from Hamilton, Ontario







STORIES FROM OUR PARTNERS